This is the latest recevied weather packets stored in our database for station/object KQ4KX. If no packets are shown the sender has not sent any weather packets the latest 10 day(s).
| Time | Temp. | Humidity | Pressure | Rain* | Wind** | Luminosity | Snow |
|---|---|---|---|---|---|---|---|
| 1788199699 | 33.89° C | 68% | 1016.4 hPa | 0 mm | - | - | - |
| 1788199574 | 33.89° C | 68% | 1016.4 hPa | 0 mm | - | - | - |
| 1788199263 | 33.33° C | 68% | 1016.6 hPa | 0 mm | - | - | - |
| 1788198962 | 33.33° C | 67% | 1016.5 hPa | 0 mm | - | - | - |
| 1788198633 | 33.33° C | 72% | 1016.6 hPa | 0 mm | - | - | - |
| 1788198307 | 32.78° C | 70% | 1016.6 hPa | 0 mm | - | - | - |
| 1788198004 | 32.78° C | 74% | 1016.8 hPa | 0 mm | - | - | - |
| 1788197893 | 32.78° C | 71% | 1017.1 hPa | 0 mm | - | - | - |
| 1788197703 | 32.78° C | 71% | 1017.1 hPa | 0 mm | - | - | - |
| 1788197655 | 32.78° C | 71% | 1017.2 hPa | 0 mm | - | - | - |
| 1788197402 | 32.78° C | 71% | 1017.2 hPa | 0 mm | - | - | - |
| 1788196941 | 32.78° C | 71% | 1017.2 hPa | 0 mm | - | - | - |
| 1788196775 | 32.78° C | 71% | 1017.2 hPa | 0 mm | - | - | - |
| 1788196113 | 32.78° C | 71% | 1017.4 hPa | 0 mm | - | - | - |
| 1788195813 | 32.78° C | 72% | 1017.4 hPa | 0 mm | - | - | - |
| 1788195514 | 32.78° C | 72% | 1017.6 hPa | 0 mm | - | - | - |
| 1788194883 | 32.78° C | 73% | 1017.7 hPa | 0 mm | - | - | - |
| 1788194804 | 32.78° C | 74% | 1017.8 hPa | 0 mm | - | - | - |
| 1788194553 | 32.78° C | 74% | 1017.8 hPa | 0 mm | - | - | - |
| 1788194373 | 32.22° C | 77% | 1017.9 hPa | 0 mm | - | - | - |
| 1788194223 | 32.22° C | 77% | 1017.9 hPa | 0 mm | - | - | - |
| 1788193126 | 32.22° C | 76% | 1018.1 hPa | 0 mm | - | - | - |
| 1788192965 | 32.22° C | 76% | 1018.1 hPa | 0 mm | - | - | - |
| 1788192663 | 32.22° C | 75% | 1018.1 hPa | 0 mm | - | - | - |
| 1788192032 | 31.67° C | 75% | 1018.3 hPa | 0 mm | - | - | - |
* Rain latest hour (hover to see other rain measurements)
** Current wind speed in m/s (hover to see current wind gust speed)